TimeCST,TemperatureF,Dew PointF,Humidity,Sea Level PressureIn,VisibilityMPH,Wind Direction,Wind SpeedMPH,Gust SpeedMPH,PrecipitationIn,Events,Conditions,WindDirDegrees,DateUTC
12:14 AM,32.0,24.8,75,30.21,9.0,North,20.7,31.1,0.00,,Overcast,360,2013-02-15 06:14:00
12:22 AM,32.0,26.6,80,30.22,8.0,North,13.8,-,0.00,,Overcast,350,2013-02-15 06:22:00
12:53 AM,30.9,21.0,67,30.25,10.0,North,20.7,26.5,0.00,,Overcast,350,2013-02-15 06:53:00
1:53 AM,28.9,17.1,61,30.28,10.0,NNW,20.7,25.3,0.00,,Overcast,340,2013-02-15 07:53:00
2:53 AM,26.1,14.0,60,30.31,10.0,North,16.1,-,N/A,,Overcast,350,2013-02-15 08:53:00
3:53 AM,23.0,12.0,63,30.33,10.0,NNW,13.8,-,N/A,,Clear,340,2013-02-15 09:53:00
4:53 AM,21.0,10.9,65,30.36,10.0,NNW,9.2,-,N/A,,Clear,330,2013-02-15 10:53:00
5:53 AM,17.1,12.0,81,30.38,10.0,NW,6.9,-,N/A,,Clear,320,2013-02-15 11:53:00
6:53 AM,17.1,10.9,77,30.40,10.0,NW,9.2,-,N/A,,Clear,310,2013-02-15 12:53:00
7:53 AM,19.0,12.0,74,30.41,10.0,NW,10.4,-,N/A,,Clear,310,2013-02-15 13:53:00
8:53 AM,21.9,10.9,63,30.43,10.0,NNW,10.4,-,N/A,,Clear,330,2013-02-15 14:53:00
9:53 AM,25.0,10.0,53,30.43,10.0,NNW,9.2,-,N/A,,Clear,330,2013-02-15 15:53:00
10:53 AM,28.9,12.0,49,30.41,10.0,NNW,15.0,-,N/A,,Clear,330,2013-02-15 16:53:00
11:53 AM,30.9,14.0,50,30.40,10.0,NW,16.1,25.3,N/A,,Mostly Cloudy,320,2013-02-15 17:53:00
12:53 PM,33.1,14.0,46,30.37,10.0,NW,15.0,21.9,N/A,,Scattered Clouds,310,2013-02-15 18:53:00
1:53 PM,34.0,12.9,42,30.35,10.0,NNW,8.1,-,N/A,,Partly Cloudy,340,2013-02-15 19:53:00
2:53 PM,35.1,12.0,39,30.35,10.0,NNW,16.1,21.9,N/A,,Partly Cloudy,330,2013-02-15 20:53:00
3:53 PM,36.0,12.9,39,30.34,10.0,North,11.5,-,N/A,,Mostly Cloudy,350,2013-02-15 21:53:00
4:53 PM,34.0,12.9,42,30.34,10.0,NW,6.9,-,N/A,,Overcast,320,2013-02-15 22:53:00
5:53 PM,28.0,12.9,53,30.34,10.0,NNE,6.9,-,N/A,,Partly Cloudy,30,2013-02-15 23:53:00
6:53 PM,27.0,12.9,56,30.34,10.0,NNE,4.6,-,N/A,,Partly Cloudy,20,2013-02-16 00:53:00
7:53 PM,28.9,16.0,58,30.35,10.0,NNE,4.6,-,N/A,,Overcast,20,2013-02-16 01:53:00
8:53 PM,28.9,17.1,61,30.35,10.0,North,6.9,-,N/A,,Overcast,10,2013-02-16 02:53:00
9:53 PM,26.1,19.0,75,30.36,10.0,WNW,5.8,-,0.00,,Overcast,300,2013-02-16 03:53:00
10:53 PM,25.0,19.0,78,30.36,10.0,North,4.6,-,N/A,,Overcast,350,2013-02-16 04:53:00
11:53 PM,25.0,16.0,69,30.36,10.0,North,5.8,-,N/A,,Overcast,360,2013-02-16 05:53:00